Location: Gerlach
(40.6516°N, 119.3568°W)
Time: 08:20:00
(UTC-07:00)

SR - Pass Details

Date: 15 February 2023
Orbit: 583 x 866 km, 66.7° (Epoch: 26 March)

Event Time Altitude Azimuth Distance (km) Brightness Sun altitude
Rises 18:32:35 0° 348° (NNW) 2,836 ? -12.0°
Reaches altitude 10° 18:37:12 10° 34° (NE) 1,905 ? -12.9°
Enters shadow 18:37:34 10° 39° (NE) 1,894 ? -13.0°
